Regional Weather Roundup
Issued by NWS Grand Forks, ND

Home | Current Version | Previous Version | Text Only | Print | Product List | Glossary On
Versions: 1 2 3 4 5 6 7 8 9 10 11 12 13 14 15 16 17 18 19 20 21 22 23 24 25 26 27 28 29 30 31 32 33 34 35 36 37 38 39 40 41 42 43 44 45 46 47 48 49 50
000
ASUS43 KFGF 191610
RWRFGF
PRAIRIE TO PINES  WEATHER ROUNDUP
NATIONAL WEATHER SERVICE EASTERN NORTH DAKOTA/GRAND FORKS ND
1100 AM CDT THU APR 19 2018

 **SATELLITE DATA USED TO AUGMENT SKY COVER AT AUTOMATED STATIONS**
 *****  WEATHER ACROSS EASTERN NORTH DAKOTA  *****

CITY           SKY/WX    TMP DP  RH WIND       PRES   REMARKS
GRAND FORKS    FAIR      48  32  53 SE5       30.41R
GRAND FRKS AFB NOT AVBL
GRAND FRKS NWS   N/A     49  27  42 SW1       30.38S
DEVILS LAKE    FAIR      42  30  62 W6        30.41S
FARGO          FAIR      48  29  47 W3        30.43R
WAHPETON ARPT  FAIR      43  32  65 SW7       30.46R
$$

 ***** WEATHER ACROSS CENTRAL AND WESTERN NORTH DAKOTA  *****

CITY           SKY/WX    TMP DP  RH WIND       PRES   REMARKS
BISMARCK       FAIR      40  34  79 VRB3      30.44R
MINOT          CLOUDY    40  35  83 NW7       30.42R HAZE
JAMESTOWN      FAIR      47  32  56 W3        30.41R
MINOT AFB      CLOUDY    36  36  98 NW6       30.41S
GARRISON         N/A     38  34  85 N6        30.42R
WILLISTON      CLOUDY    38  35  89 VRB5      30.41S FOG
DICKINSON      PTSUNNY   41  39  93 E7        30.35S
HETTINGER      FAIR      47  34  60 SE8       30.36F
$$

 *****  OTHER AIRPORT OBSERVATIONS IN OUR AREA  *****

CITY           SKY/WX    TMP DP  RH WIND       PRES   REMARKS
WALHALLA       FAIR      50  30  46 CALM      30.40R
GRAFTON AIRPOR FAIR      48  30  49 E5        30.42S
VALLEY CITY AR FAIR      43  36  75 CALM      30.44R
CANDO          FAIR      46  34  61 VRB5      30.42S
CAVALIER APRT    N/A     48  28  46 CALM      30.40R
GWINNER          N/A     46  34  61 W7        30.43S
SHEYENNE NWR     N/A     50  28  43 W6        29.95S
ROLLA          FAIR      41  36  81 CALM      30.39S
 ***** THE ABOVE OBSERVATIONS ARE NON NWS ARE NOT QUALITY
       CONTROLLED AND MAY MIS-REPORT RAIN FOR SNOW...
$$

  *****  WEATHER ACROSS NORTHERN MINNESOTA  *****

CITY           SKY/WX    TMP DP  RH WIND       PRES   REMARKS
FLAG ISLAND    FAIR      34  23  64 SE6       30.41R
WARROAD        FAIR      48  19  32 NW5       30.41S
ROSEAU         FAIR      46  19  34 W6        30.41S
HALLOCK        FAIR      48  28  46 CALM      30.40S
THF RVR FALLS  FAIR      45  21  38 W3        30.42S
BAUDETTE       FAIR      47  17  30 SW3       30.41R
WASKISH        FAIR      45  16  31 W5        30.42R
CROOKSTON      FAIR      45  28  53 CALM      30.43R
GREENBUSH NDAW   N/A     46  21  36 W3          N/A
$$
  *****  WEATHER ACROSS CENTRAL AND WEST MINNESOTA  *****

CITY           SKY/WX    TMP DP  RH WIND       PRES   REMARKS
FOSSTON        FAIR      48  18  29 W8        30.42R
BEMIDJI        FAIR      47  13  25 NW6       30.41S
PARK RAPIDS    FAIR      47  18  31 CALM      30.41S
ELBOW LAKE     FAIR      44  30  57 W8        30.45S
WADENA         FAIR      43  25  49 SW10      30.43R
DETROIT LAKES  FAIR      46  21  36 CALM      30.43R
MOORHEAD       FAIR      45  30  57 S5        30.44R
FERGUS FALLS   FAIR      45  34  65 SW7       30.43S
MORRIS MN      FAIR      45  28  53 S9        30.45S
STAPLES        FAIR      45  21  39 W5        30.44R
$$
  *****  WEATHER ELSEWHERE ACROSS MINNESOTA  *****

CITY           SKY/WX    TMP DP  RH WIND       PRES   REMARKS
DULUTH         FAIR      46  16  30 VRB5      30.40R
INTRNTL FALLS  FAIR      48  11  22 W5        30.40S
ELY            FAIR      45  10  24 NW7G16    30.39S
CLOQUET        FAIR      46   9  21 NW6       30.41R
WHEATON        FAIR      46  30  53 SW5       30.47R
BRAINERD       FAIR      47  18  31 W9        30.43S
HIBBING        FAIR      45  14  28 NW9       30.40R
ALEXANDRIA     FAIR      47  25  42 W10       30.46R
SAINT CLOUD    FAIR      48  20  32 W7        30.45S
MINNEAPOLIS    FAIR      45  18  34 VRB5      30.47R
$$

  *****  WEATHER ACROSS SOUTH DAKOTA  *****

CITY           SKY/WX    TMP DP  RH WIND       PRES   REMARKS
SIOUX FALLS    FAIR      40  22  48 CALM      30.48R
BROOKINGS      FAIR      43  20  39 S7        30.47R
WATERTOWN      FAIR      44  29  55 S7        30.44R
HURON          FAIR      37  32  82 SW5       30.48R
SISSETON         N/A     49  35  58 N3        30.44R
ABERDEEN       FAIR      49  34  56 SW7       30.46R
MITCHELL       FAIR      37  32  82 W3        30.49R
PIERRE         FAIR      43  33  68 S7        30.43S
MOBRIDGE       FAIR      45  30  55 S6        30.40S
RAPID CITY     FAIR      49  36  61 SE14      30.33F
$$

  *****  SOME WEATHER IN NEARBY STATES *****

CITY           SKY/WX    TMP DP  RH WIND       PRES   REMARKS
GLASGOW MT     CLOUDY    36  33  89 E21       30.30F FOG
GREAT FALLS MT FAIR      39  29  67 W6        30.14F
CHEYENNE WY    FAIR      40  18  41 S22G35    30.24F
SCOTTSBLUFF NE FAIR      51  32  48 SE17      30.29F
OMAHA NE       FAIR      47  30  51 N7        30.48R
DES MOINES IA  FAIR      45  27  49 N9        30.46R
DAVENPORT IA   FAIR      43  31  62 N8        30.42R
CHICAGO IL     FAIR      45  27  49 N13       30.32R
EAU CLAIRE WI  FAIR      40  20  44 NW5       30.42R
LA CROSSE WI   FAIR      38  28  67 NW7       30.44R
$$

  *****  SOME NATIONAL WEATHER *****

CITY           SKY/WX    TMP DP  RH WIND       PRES   REMARKS
LA GUARDIA NY  LGT RAIN  44  37  76 N12       29.70S
RALEIGH NC     PTSUNNY   73  51  46 N10       29.80R
ATLANTA GA     FAIR      65  41  41 NW15G23   30.06R
NEW ORLEANS LA FAIR      72  51  47 N8        30.19R
OKLAHOMA CITY  PTSUNNY   52  28  39 NE14      30.43R
ALBUQUERQUE NM FAIR      58  14  17 E25       30.21F
SALT LAKE CITY PTSUNNY   55  19  24 S10       29.85F
LOS ANGELES CA PTSUNNY   54  45  71 SW6       30.04R
BOISE ID       PTSUNNY   47  34  60 W3        29.94F
SEATTLE WA     FAIR      49  41  74 N6        30.26R
$$

*** WEATHER ACROSS MANITOBA...SASKATCHEWAN AND ONTARIO ***
                ***ONTARIO***

CITY           SKY/WX    TMP DP  RH WIND       PRES   REMARKS
GERALDTON      SUNNY     37  14  38 N9        30.30F
THUNDER BAY    SUNNY     48  16  27 W8        30.35F
SIOUX LOOKOUT  MOSUNNY   46  12  25 W8        30.36S
TORONTO        PTSUNNY   36  25  64 N16G25    29.95R
BIG TROUT LK   SUNNY     41  14  33 S5        30.28S
PICKLE LAKE    MOSUNNY   46  10  23 W6        30.31S
DRYDEN         SUNNY     46  14  27 W9        30.37S
KENORA         PTSUNNY   46   9  21 SW5       30.39R
$$
                *** MANITOBA***

CITY           SKY/WX    TMP DP  RH WIND       PRES   REMARKS
BRANDON        MOSUNNY   43  32  65 VRB2      30.40R
DAUPHIN        SUNNY     45  32  61 NW3       30.40S
ISLAND LAKE    MOSUNNY   41  25  52 NW3       30.33S
PILOT MOUND      N/A     43  34  70 NW5         N/A
THE PAS        MOSUNNY   41  25  52 S9        30.36S
THOMPSON       MOSUNNY   45  21  39 W5        30.33R
WINNIPEG       MOSUNNY   46  28  49 NW5       30.40R
LYNN LAKE      SUNNY     45  19  36 SW20G26   30.24S
CHURCHILL      SUNNY     39  27  60 W13G20    30.24R
GILLAM         SUNNY     43  25  49 W8        30.32R
$$
                ***SASKATCHEWAN***

CITY           SKY/WX    TMP DP  RH WIND       PRES   REMARKS
ESTEVAN        PTSUNNY   32  32 100 VRB2      30.42S FOG
KINDERSLEY     MOSUNNY   41  34  75 SW8       30.26S
LLOYDMINSTER   MOSUNNY   39  32  75 S7        30.22S
PRINCE ALBERT  NOT AVBL
REGINA         MOSUNNY   32  30  93 SE10      30.39S FOG     WCI  24
YORKTON        SUNNY     37  27  65 SE2       30.41R
N. BATTLEFORD  MOSUNNY   41  30  65 S7        30.29S
LA RONGE       SUNNY     46  25  42 S7        30.26F
SASKATOON      MOSUNNY   45  28  53 S14G20    30.33S
SWIFT CURRENT  SUNNY     43  28  56 S12       30.28S
$$
NOTE: THESE ARE AUTOMATED STATIONS WITH LIMITED QUALITY CONTROL
      "FAIR" INDICATES FEW OR NO CLOUDS BELOW 12,000 FEET WITH NO
      SIGNIFICANT WEATHER AND/OR OBSTRUCTIONS TO VISIBILITY.
      SKY/WX - SKY CONDITION AND SIGNIFICANT WEATHER.
      TMP - AIR TEMPERATURE.    DP   - DEWPOINT TEMPERATURE.
      RH  - RELATIVE HUMIDITY.  PRES - PRESSURE.
      HX  - HEAT INDEX.         WCI  - WIND CHILL INDEX.
$



USA.gov is the U.S. government's official web portal to all federal, state and local government web resources and services.